Home   Weather   Vevay   Past weeks

Flag for USA Past Weather in Vevay, Indiana, USA — Yesterday and Last 2 Weeks

Now
73 °F

Scattered clouds.


Feels Like: 77 °F
Forecast: 48 / 76 °F
Wind: 10 mph from Southwest

Location: Cincinnati / Northern Kentucky International Airport

Current Time: Sep 27, 2016 at 6:28:20 PM

Latest Report: Sep 27, 2016 at 5:52 PM


Visibility: 10 mi

Pressure: 29.84 "Hg

Humidity: 37%

Dew Point: 45 °F

Location of VevayLocation

Past Weather in Vevay — Graph

°F

Vevay Temperature Yesterday

Maximum temperature yesterday: 71 °F (at 3:52 AM)
Minimum temperature yesterday: 54 °F (at 10:52 PM)
Average temperature yesterday: 64 °F

High & Low Weather Summary for the Past Weeks

 TemperatureHumidityPressure
High88 °F (Sep 20, 3:52 PM)100% (Sep 13, 4:52 AM)30.20 "Hg (Sep 13, 4:52 AM)
Low49 °F (Sep 27, 6:52 AM)29% (Sep 20, 4:52 PM)29.85 "Hg (Sep 27, 4:52 PM)
Average72 °F73%30.06 "Hg
* Reported Sep 12 4:52 PM — Sep 27 4:52 PM, Vevay, Weather by CustomWeather, © 2016

Note: Actual official high and low records may vary slightly from our data, if they occured in-between our weather recording intervals... More about our weather records

Advertising

Vevay Weather History for the Previous 24 Hours

Scroll right to see more
 ConditionsComfort  
Time TempWeatherWind HumidityBarometerVisibility
4:52 PM
Tue, Sep 27
74 °FScattered clouds.10 mph35%29.85 "Hg10 mi
3:52 PM74 °FScattered clouds.9 mph36%29.86 "Hg10 mi
2:52 PM73 °FScattered clouds.8 mph36%29.88 "Hg10 mi
1:52 PM72 °FPassing clouds.12 mph35%29.91 "Hg10 mi
12:52 PM71 °FSunny.13 mph36%29.94 "Hg10 mi
11:52 AM68 °FSunny.8 mph49%29.96 "Hg10 mi
10:52 AM65 °FPassing clouds.8 mph56%29.98 "Hg10 mi
9:52 AM58 °FSunny.5 mph75%29.98 "Hg10 mi
8:52 AM53 °FSunny.6 mph93%29.99 "Hg10 mi
7:52 AM49 °FSunny.6 mph97%29.99 "Hg9 mi
6:52 AM49 °FClear.6 mph97%29.99 "Hg10 mi
5:52 AM50 °FClear.5 mph96%29.99 "Hg10 mi
4:52 AM52 °FClear.5 mph93%30.00 "Hg10 mi
3:52 AM52 °FClear.5 mph93%30.01 "Hg10 mi
2:52 AM54 °FClear.3 mph90%30.01 "Hg10 mi
1:52 AM54 °FClear.6 mph90%30.02 "Hg10 mi
12:52 AM54 °FClear.6 mph90%30.03 "Hg10 mi
11:52 PM
Mon, Sep 26
55 °FClear.6 mph83%30.04 "Hg10 mi
10:52 PM54 °FClear.5 mph86%30.04 "Hg10 mi
9:52 PM58 °FClear.5 mph78%30.05 "Hg10 mi
8:52 PM59 °FPassing clouds.3 mph75%30.04 "Hg10 mi
7:52 PM61 °FPassing clouds.3 mph70%30.02 "Hg10 mi
6:52 PM65 °FPartly sunny.5 mph61%30.01 "Hg10 mi
Weather by CustomWeather, © 2016

See weather overviewHow to use our weather pages